• In Uzbekistan
  • List of Countries
  • For 7 days
  • Water Temperature
  • Satellite Maps
  • Weather Map
  • Weather Widgets
  • user-avatar
    Login

    Hourly Weather Mongu

    Today, 19 July, Thursday

    Time Temperature Precipitation Wind Pressure Humidity
    00:00 +16°C° 0 mm 3 mps 679 mmHg 52%
    01:00 +14°C° 0 mm 3 mps 679 mmHg 55%
    02:00 +13°C° 0 mm 3 mps 678 mmHg 58%
    03:00 +12°C° 0 mm 3 mps 678 mmHg 62%
    04:00 +11°C° 0 mm 3 mps 678 mmHg 65%
    05:00 +11°C° 0 mm 3 mps 678 mmHg 69%
    06:00 +11°C° 0 mm 3 mps 678 mmHg 68%
    07:00 +11°C° 0 mm 3 mps 679 mmHg 67%
    08:00 +12°C° 0 mm 4 mps 679 mmHg 66%
    09:00 +15°C° 0 mm 4 mps 679 mmHg 57%
    10:00 +17°C° 0 mm 5 mps 680 mmHg 47%
    11:00 +21°C° 0 mm 5 mps 680 mmHg 38%
    12:00 +22°C° 0 mm 5 mps 680 mmHg 35%
    13:00 +25°C° 0 mm 4 mps 679 mmHg 32%
    14:00 +26°C° 0 mm 4 mps 679 mmHg 28%
    15:00 +26°C° 0 mm 4 mps 678 mmHg 29%
    16:00 +26°C° 0 mm 4 mps 678 mmHg 29%
    17:00 +26°C° 0 mm 3 mps 677 mmHg 29%
    18:00 +22°C° 0 mm 3 mps 677 mmHg 35%
    19:00 +20°C° 0 mm 3 mps 677 mmHg 42%
    20:00 +17°C° 0 mm 2 mps 677 mmHg 48%
    21:00 +16°C° 0 mm 2 mps 677 mmHg 50%
    22:00 +16°C° 0 mm 3 mps 677 mmHg 53%
    23:00 +14°C° 0 mm 3 mps 678 mmHg 55%

    Tomorrow, 20 July, Friday

    Time Temperature Precipitation Wind Pressure Humidity
    00:00 +14°C° 0 mm 3 mps 678 mmHg 57%
    01:00 +14°C° 0 mm 3 mps 678 mmHg 58%
    02:00 +13°C° 0 mm 4 mps 678 mmHg 60%
    03:00 +13°C° 0 mm 3 mps 677 mmHg 64%
    04:00 +12°C° 0 mm 3 mps 677 mmHg 67%
    05:00 +11°C° 0 mm 3 mps 677 mmHg 71%
    06:00 +11°C° 0 mm 3 mps 677 mmHg 70%
    07:00 +12°C° 0 mm 4 mps 677 mmHg 69%
    08:00 +12°C° 0 mm 4 mps 678 mmHg 68%
    09:00 +15°C° 0 mm 4 mps 679 mmHg 57%
    10:00 +19°C° 0 mm 5 mps 679 mmHg 47%
    11:00 +22°C° 0 mm 5 mps 680 mmHg 36%
    12:00 +23°C° 0 mm 4 mps 679 mmHg 32%
    13:00 +26°C° 0 mm 4 mps 679 mmHg 28%
    14:00 +27°C° 0 mm 4 mps 678 mmHg 25%
    15:00 +27°C° 0 mm 4 mps 678 mmHg 25%
    16:00 +27°C° 0 mm 3 mps 677 mmHg 25%
    17:00 +26°C° 0 mm 3 mps 676 mmHg 25%
    18:00 +24°C° 0 mm 3 mps 676 mmHg 31%
    19:00 +20°C° 0 mm 3 mps 676 mmHg 37%
    20:00 +17°C° 0 mm 2 mps 676 mmHg 43%
    21:00 +17°C° 0 mm 2 mps 677 mmHg 46%
    22:00 +16°C° 0 mm 3 mps 677 mmHg 49%
    23:00 +14°C° 0 mm 3 mps 678 mmHg 52%

    Day after tomorrow, 21 July, Saturday

    Time Temperature Precipitation Wind Pressure Humidity
    00:00 +14°C° 0 mm 3 mps 677 mmHg 54%
    01:00 +13°C° 0 mm 3 mps 677 mmHg 57%
    02:00 +13°C° 0 mm 3 mps 677 mmHg 59%
    03:00 +12°C° 0 mm 3 mps 677 mmHg 62%
    04:00 +12°C° 0 mm 3 mps 677 mmHg 64%
    05:00 +11°C° 0 mm 3 mps 676 mmHg 67%
    06:00 +12°C° 0 mm 3 mps 677 mmHg 65%
    07:00 +12°C° 0 mm 3 mps 677 mmHg 64%
    08:00 +13°C° 0 mm 4 mps 678 mmHg 62%
    09:00 +17°C° 0 mm 4 mps 679 mmHg 52%
    10:00 +20°C° 0 mm 4 mps 679 mmHg 41%
    11:00 +25°C° 0 mm 4 mps 680 mmHg 30%
    12:00 +26°C° 0 mm 4 mps 680 mmHg 27%
    13:00 +27°C° 0 mm 4 mps 679 mmHg 23%
    14:00 +29°C° 0 mm 3 mps 678 mmHg 20%
    15:00 +28°C° 0 mm 3 mps 678 mmHg 20%
    16:00 +28°C° 0 mm 3 mps 677 mmHg 20%
    17:00 +28°C° 0 mm 3 mps 677 mmHg 20%
    18:00 +25°C° 0 mm 3 mps 677 mmHg 25%
    19:00 +21°C° 0 mm 3 mps 677 mmHg 31%
    20:00 +18°C° 0 mm 2 mps 677 mmHg 36%
    21:00 +18°C° 0 mm 3 mps 678 mmHg 38%
    22:00 +17°C° 0 mm 3 mps 678 mmHg 41%
    23:00 +16°C° 0 mm 3 mps 678 mmHg 44%

    22 July, Sunday

    Time Temperature Precipitation Wind Pressure Humidity
    00:00 +16°C° 0 mm 3 mps 678 mmHg 47%
    01:00 +14°C° 0 mm 3 mps 678 mmHg 50%
    02:00 +14°C° 0 mm 3 mps 678 mmHg 54%
    03:00 +13°C° 0 mm 3 mps 678 mmHg 57%
    04:00 +13°C° 0 mm 3 mps 677 mmHg 60%
    05:00 +12°C° 0 mm 3 mps 677 mmHg 63%
    06:00 +13°C° 0 mm 3 mps 678 mmHg 62%
    07:00 +13°C° 0 mm 4 mps 678 mmHg 62%
    08:00 +14°C° 0 mm 4 mps 679 mmHg 61%
    09:00 +18°C° 0 mm 4 mps 679 mmHg 52%
    10:00 +21°C° 0 mm 4 mps 680 mmHg 42%
    11:00 +25°C° 0 mm 4 mps 681 mmHg 32%
    12:00 +27°C° 0 mm 4 mps 680 mmHg 28%
    13:00 +28°C° 0 mm 4 mps 679 mmHg 24%
    14:00 +30°C° 0 mm 3 mps 679 mmHg 20%
    15:00 +29°C° 0 mm 3 mps 678 mmHg 19%
    16:00 +29°C° 0 mm 4 mps 678 mmHg 19%
    17:00 +29°C° 0 mm 4 mps 677 mmHg 19%
    18:00 +26°C° 0 mm 3 mps 677 mmHg 23%
    19:00 +22°C° 0 mm 3 mps 677 mmHg 28%
    20:00 +19°C° 0 mm 3 mps 677 mmHg 32%
    21:00 +18°C° 0 mm 3 mps 678 mmHg 35%
    22:00 +18°C° 0 mm 3 mps 678 mmHg 37%
    23:00 +17°C° 0 mm 3 mps 678 mmHg 40%

    23 July, Monday

    Time Temperature Precipitation Wind Pressure Humidity
    00:00 +16°C° 0 mm 3 mps 678 mmHg 43%
    01:00 +16°C° 0 mm 3 mps 678 mmHg 45%
    02:00 +14°C° 0 mm 3 mps 678 mmHg 47%
    03:00 +14°C° 0 mm 3 mps 678 mmHg 51%
    04:00 +13°C° 0 mm 3 mps 678 mmHg 54%
    05:00 +13°C° 0 mm 3 mps 678 mmHg 57%
    06:00 +13°C° 0 mm 3 mps 678 mmHg 57%
    07:00 +14°C° 0 mm 4 mps 679 mmHg 57%
    08:00 +14°C° 0 mm 4 mps 679 mmHg 57%
    09:00 +18°C° 0 mm 4 mps 680 mmHg 47%
    10:00 +21°C° 0 mm 5 mps 680 mmHg 37%
    11:00 +25°C° 0 mm 5 mps 681 mmHg 27%
    12:00 +27°C° 0 mm 5 mps 680 mmHg 24%
    13:00 +28°C° 0 mm 4 mps 679 mmHg 21%
    14:00 +29°C° 0 mm 4 mps 679 mmHg 18%
    15:00 +29°C° 0 mm 4 mps 678 mmHg 19%
    16:00 +29°C° 0 mm 4 mps 678 mmHg 19%
    17:00 +29°C° 0 mm 4 mps 677 mmHg 20%
    18:00 +26°C° 0 mm 3 mps 677 mmHg 26%
    19:00 +22°C° 0 mm 3 mps 677 mmHg 31%
    20:00 +19°C° 0 mm 2 mps 677 mmHg 37%
    21:00 +18°C° 0 mm 3 mps 677 mmHg 40%
    22:00 +18°C° 0 mm 3 mps 678 mmHg 43%
    23:00 +17°C° 0 mm 3 mps 678 mmHg 46%

    24 July, Tuesday

    Time Temperature Precipitation Wind Pressure Humidity
    00:00 +16°C° 0 mm 3 mps 678 mmHg 49%
    01:00 +16°C° 0 mm 3 mps 677 mmHg 53%
    02:00 +14°C° 0 mm 3 mps 677 mmHg 56%
    03:00 +14°C° 0 mm 3 mps 677 mmHg 59%
    04:00 +13°C° 0 mm 3 mps 677 mmHg 61%
    05:00 +12°C° 0 mm 3 mps 677 mmHg 64%
    06:00 +13°C° 0 mm 3 mps 677 mmHg 63%
    07:00 +13°C° 0 mm 3 mps 678 mmHg 61%
    08:00 +14°C° 0 mm 4 mps 679 mmHg 60%
    09:00 +18°C° 0 mm 4 mps 679 mmHg 48%
    10:00 +21°C° 0 mm 5 mps 680 mmHg 36%
    11:00 +26°C° 0 mm 5 mps 680 mmHg 24%
    12:00 +27°C° 0 mm 5 mps 680 mmHg 21%
    13:00 +28°C° 0 mm 4 mps 679 mmHg 18%
    14:00 +30°C° 0 mm 4 mps 678 mmHg 15%
    15:00 +29°C° 0 mm 4 mps 678 mmHg 15%
    16:00 +29°C° 0 mm 4 mps 677 mmHg 15%
    17:00 +29°C° 0 mm 4 mps 677 mmHg 15%
    18:00 +26°C° 0 mm 3 mps 677 mmHg 19%
    19:00 +22°C° 0 mm 3 mps 677 mmHg 23%
    20:00 +19°C° 0 mm 2 mps 677 mmHg 27%
    21:00 +18°C° 0 mm 2 mps 677 mmHg 30%
    22:00 +17°C° 0 mm 2 mps 677 mmHg 33%
    23:00 +16°C° 0 mm 3 mps 677 mmHg 36%
    Show more